Regional Weather Roundup
Issued by NWS Portland, ME

Home | Current Version | Previous Version | Text Only | Print | Product List | Glossary On
Versions: 1 2 3 4 5 6 7 8 9 10 11 12 13 14 15 16 17 18 19 20 21 22 23 24 25 26 27 28 29 30 31 32 33 34 35 36 37 38 39 40 41 42 43 44 45 46 47 48 49 50
296
ASUS41 KGYX 230810
RWRGYX
WEATHER ROUNDUP FOR MAINE AND NEW HAMPSHIRE
NATIONAL WEATHER SERVICE GRAY ME
400 AM EDT THU MAR 23 2017

MEZ002-005-006-010-012-015-018-020-021-024-026-027-029-230900-
MAINE

CITY           SKY/WX    TMP DP  RH WIND       PRES   REMARKS
PORTLAND       CLEAR     15  -5  40 NW16G23   30.30R WCI  -1
SANFORD        CLEAR     11  -4  51 VRB5      30.31R
BAR HARBOR     CLEAR     10  -7  46 N9G17     30.19R
WISCASSET      CLEAR     15  -8  35 VRB7      30.28R
ROCKLAND       CLEAR     13  -6  42 NW8G21    30.24R
FRYEBURG       CLEAR     13  -9  37 VRB5      30.29R
LEWISTONAUBURN CLEAR     13  -4  46 N12       30.28R WCI  -1
AUGUSTA        CLEAR     12  -9  38 NW13      30.25R WCI  -3
WATERVILLE     CLEAR     10  -7  46 N8G16     30.22R
BANGOR         CLEAR     11  -6  46 NW13      30.21R WCI  -4
GREENVILLE       N/A      3  -8  60 NW16G30   30.09R WCI -16
MILLINOCKET    CLEAR      8  -7  50 NW10      30.17R WCI  -6
HOULTON        CLEAR      6  -8  52 N15G25    30.10R WCI -12
PRESQUE ISLE   PTCLDY     5  -8  55 NW14      30.14R WCI -12
FRENCHVILLE    CLEAR      2 -11  54 NW14G25   30.08R WCI -16
CARIBOU        CLEAR      4  -9  55 NW13G23   30.10R WCI -13
$$

NHZ002-005-008-009-011-012-014-230900-
NEW HAMPSHIRE

CITY           SKY/WX    TMP DP  RH WIND       PRES   REMARKS
PORTSMOUTH     CLEAR     16  -6  38 NW9       30.32R
ROCHESTER      CLEAR     15  -5  40 NW9       30.28R
NASHUA         CLEAR     17  -3  41 NW10G18   30.36F WCI   5
MANCHESTER     CLEAR     17  -6  35 NW14G24   30.34S WCI   3
CONCORD        CLEAR     15  -3  44 NW14      30.34S WCI   0
LACONIA        CLEAR     14  -5  42 NW12G18   30.32S WCI   0
PLYMOUTH       FAIR      14  -4  43 NW13G21   30.34R WCI   0
BERLIN         MOCLDY     7  -9  48 CALM      30.26R
WHITEFIELD     CLEAR      8  -9  45 W8        30.31R
JAFFREY        CLEAR     14  -8  37 VRB7      30.31S
KEENE          CLEAR     13  -3  49 VRB3      30.38S
LEBANON        CLEAR      9  -3  58 CALM      30.37R
MT WASHINGTON  ICE FOG  -17 -17 100 NW60G71     N/A  VSB 1/8 WCI -57
$$

VTZ005-007-008-230900-
VERMONT

CITY           SKY/WX    TMP DP  RH WIND       PRES   REMARKS
ST JOHNSBURY     N/A     10  -4  53 MISG      30.35R
MONTPELIER     CLEAR      9  -5  53 CALM      30.38R
BURLINGTON     CLEAR      6  -2  69 CALM      30.45R
$$

MAZ007-012-024-CTZ003-RIZ002-NYZ038-NYZ072-230900-
SOUTHERN NEW ENGLAND AND NY

CITY           SKY/WX    TMP DP  RH WIND       PRES   REMARKS
BOSTON         CLEAR     19  -4  36 NW17G26   30.38R WCI   4
WORCESTER      CLEAR     13  -9  37 NW12      30.30S WCI  -1
NANTUCKET      CLEAR     20   0  41 NW22G35   30.33R WCI   3
PROVIDENCE     PTCLDY    19  -7  31 N9        30.40S
HARTFORD       PTCLDY    17  -5  37 NW7       30.42S
ALBANY         CLEAR     15  -1  49 W7        30.47S
NEW YORK CITY  CLEAR     26   6  42 NW9       30.48S
$$

ANZ081-ANZ082-ANZ150-NHZ014-MEZ023>029-230900-
COASTAL MARINE OBSERVATIONS

STATION/POSITION TIME  TEMP    WIND        PRES    WAVE
                       AIR SEA DIR/SP/G            HT/PER
                 (UTC) (F)     (DEG/KT/KT) (MB)    (FT/S)
MOUNT DESERT ROC 0800   16                 1021.3R
MATINICUS ROCK   0700   17     330/ 36/ 43 1021.8R
ISLE OF SHOALS   0700   18     310/ 19/ 22 1026.4R
JEFFREYS LEDGE   0706      41                N/A     8/ 5
CASHES LEDGE BUO 0650   21 38              1023.1   11/ 8
GEORGES BANK BUO 0650   27 40              1018.7   15/10
$$

.............KEY..............
   WCI - WIND CHILL
   TC  - TEMPERATURE IN CELSIUS
   VSB - VISIBILITY IN MILES
   HX  - HEAT INDEX
   FAIR- INDICATES FEW OR NO CLOUDS BELOW 12,000 FT, WITH NO
         SIGNIFICANT WEATHER AND/OR OBSTRUCTIONS TO VISIBILITY.






USA.gov is the U.S. government's official web portal to all federal, state and local government web resources and services.